Location: Bou Irsane
(32.6208°N, 5.2996°W)
Time: 12:40:52
(UTC+00:00)

Daily predictions for brighter satellites

Satellite Brightness Start Highest point End
(mag) Time Altitude Azimuth Time Altitude Azimuth Time Altitude Azimuth
BREEZE-M DEB 4.4 19:28:55 10° NNW 19:32:27 47° NE 19:44:13 10° ESE
Iridium 2 3.8 19:32:15 10° N 19:35:57 53° E 19:39:36 10° SSE
Cosmos 1346 Rocket 3.4 19:35:53 10° SSW 19:39:47 63° W 19:43:44 10° N
Cosmos 1900 4.3 19:35:18 10° SSW 19:40:07 65° ESE 19:45:03 10° NNE
KM-V1 4.3 19:35:17 10° W 19:41:06 73° S 19:44:06 10° E
Meteor 1-26 Rocket 4.4 19:36:05 10° N 19:41:25 48° E 19:46:36 10° SSE
Cosmos 1302 Rocket 4.0 19:39:46 10° NNW 19:44:59 79° ENE 19:50:12 10° SSE
Cosmos 1408 Rocket 3.7 19:42:39 10° S 19:47:06 84° W 19:51:35 10° N
COSMOS 2406 3.6 19:43:52 10° S 19:49:13 42° ESE 19:54:36 10° NE
Cosmos 1743 Rocket 3.8 19:46:46 10° SSE 19:51:00 50° E 19:55:20 10° NNE
Cosmos 2366 rocket 4.0 19:45:21 10° S 19:51:33 68° E 19:57:43 10° NNE
USA 267 3.2 19:46:49 10° NE 19:53:22 74° SE 19:59:53 10° SW
Cosmos 1862 4.3 19:55:56 10° SSE 19:59:23 28° E 20:02:53 10° NNE
Sich 1 4.5 19:57:39 12° SE 20:00:22 19° E 20:03:31 10° NE
CZ-2C R/B 4.3 19:56:36 10° NNE 20:00:46 34° E 20:04:50 10° SSE
CZ-2C R/B 3.8 19:57:33 10° S 20:02:20 51° W 20:07:00 10° NNW
SJ-6B 3.2 19:58:24 10° SSE 20:02:20 49° ENE 20:06:16 10° N
MOS 1 Rocket 4.1 19:57:18 10° N 20:02:41 66° WNW 20:07:54 10° SSW
SL-8 Rocket 4.3 19:57:43 10° SSW 20:03:51 74° W 20:10:04 10° N
Cosmos 2082 Rocket 3.4 20:00:30 10° SSE 20:04:33 20° E 20:08:38 10° NE
Cosmos 292 Rocket 4.2 20:02:38 10° NNW 20:07:20 63° WSW 20:12:00 10° S
Gbstr 26 Del rocket 2.6 20:04:37 10° NW 20:08:23 81° SW 20:11:10 17° SE
CZ-4 R/B 4.4 20:07:53 10° WSW 20:09:29 12° W 20:11:05 10° WNW
Cosmos 1500 Rocket 3.4 20:06:06 10° S 20:10:23 84° E 20:14:43 10° N
Ariane Rocket 3.0 20:09:23 10° SSE 20:14:27 89° ENE 20:19:32 10° NNW
USA 186 1.7 20:13:48 10° S 20:16:06 51° W 20:18:21 10° NNW
Resurs 1-3 4.3 20:13:31 18° SE 20:16:08 35° ENE 20:20:07 10° N
SL-08 R/B 4.4 20:12:11 10° S 20:18:24 72° E 20:24:34 10° N
FREGAT/IRIS 2.4 20:17:28 14° S 20:19:34 71° W 20:22:12 10° NNW
ARGOS 3.7 20:14:35 10° S 20:19:54 59° W 20:25:13 10° NNW
Cosmos 407 Rocket 3.9 20:15:20 10° S 20:20:18 41° ESE 20:25:17 10° NNE
BREEZE-M DEB (TANK) 2.4 20:13:48 10° NW 20:20:26 78° SW 20:21:57 26° SE
Cosmos 1992 Rocket 4.0 20:18:34 10° N 20:23:47 68° ENE 20:27:37 18° SSE
CZ-2C R/B 2.9 20:23:28 10° N 20:28:36 67° WNW 20:33:47 10° SSW
USA 238 DEB 4.3 20:27:09 10° S 20:32:43 30° ESE 20:38:23 10° NE
USA 238 4.3 20:27:18 10° SSE 20:32:50 30° ESE 20:38:28 10° NE
Cosmos 1805 Rocket 3.5 20:29:07 10° S 20:33:29 70° E 20:37:54 10° NNE
H-2A R/B 3.8 20:29:08 10° SSW 20:33:43 30° W 20:38:11 10° NW
Meteor 1-10 Rocket 4.5 20:30:03 10° N 20:35:35 51° E 20:38:46 25° SE
Cosmos 1782 3.4 20:32:48 10° NNW 20:36:45 58° W 20:40:30 11° S
BREEZE-M DEB (TANK) 2.8 20:34:06 10° NW 20:38:13 31° NNE 20:39:00 26° ENE
CZ-3A R/B 4.1 20:06:58 10° W 20:42:12 60° SSW 20:48:05 26° SE
SL-4 R/B 3.3 20:39:38 10° WSW 20:43:32 41° NW 20:47:11 10° NNE
Cosmos 1140 Rocket 3.5 20:40:51 10° S 20:45:56 56° ESE 20:51:05 10° NNE
Cosmos 1980 Rocket 4.0 20:43:00 10° NNE 20:45:59 14° NE 20:47:05 14° ENE
Cosmos 1023 Rocket 4.4 20:45:15 10° S 20:50:26 65° ESE 20:55:40 10° NNE
ATLAS 5 CENTAUR R/B 2.7 20:48:35 10° NNW 20:54:34 58° ENE 20:57:17 35° ESE
Cosmos 1833 Rocket 2.9 20:49:21 10° SSW 20:54:56 73° WNW 21:00:34 10° NNE
Cosmos 1633 Rocket 3.4 20:55:06 44° E 20:55:06 44° E 20:59:16 10° NNE
SPOT 3 Rocket 3.6 20:54:53 27° S 20:57:49 82° WSW 21:03:03 10° NNW
Cosmos 389 Rocket 2.3 20:54:53 10° N 20:58:13 78° NE 20:58:13 78° NE
Cosmos 2228 Rocket 3.7 20:54:43 10° NNW 20:59:02 54° W 21:01:38 22° SSW
Cosmos 1867 3.4 20:55:59 10° SSW 21:01:20 68° ESE 21:06:45 10° NNE
CENTAUR R/B 4.1 21:04:45 16° ENE 21:04:45 16° ENE 21:06:22 10° NE
Cosmos 1812 2.5 20:57:40 10° N 21:01:31 77° E 21:01:40 75° ESE
Cosmos 1697 Rocket 3.3 20:56:58 10° N 21:02:10 38° ENE 21:03:04 35° E
Resurs 01 Rocket 1.5 21:05:06 56° SSE 21:06:02 88° ENE 21:10:27 10° NNW
Skynet4D Del rocket 3.9 21:01:02 10° WSW 21:06:14 45° S 21:06:47 44° SSE
Landsat 7 4.4 21:08:59 39° ENE 21:08:59 39° ENE 21:13:14 10° N
Cosmos 220 Rocket 3.9 21:08:43 10° NNW 21:12:46 70° NE 21:12:46 70° NE
Cosmos 1707 Rocket 3.5 21:08:51 10° N 21:12:53 62° ENE 21:12:53 62° ENE
Cosmos 1656 3.5 21:07:56 10° NNW 21:13:27 87° WSW 21:14:58 50° SSE
Cosmos 676 Rocket 3.9 21:14:03 58° SSE 21:14:48 65° ESE 21:20:05 10° NNE
IGS 5A 4.3 21:17:35 38° NE 21:17:35 38° NE 21:20:37 10° N
Cosmos 1934 Rocket 3.9 21:16:23 34° S 21:19:24 83° E 21:25:47 10° N
Aureole 1 Rocket 4.1 21:15:58 22° SSW 21:20:10 84° ESE 21:27:56 10° NNE
NOSS 3-2 (A) 3.1 21:23:47 23° SSW 21:27:19 84° ESE 21:33:24 10° NNE
GP-B 3.7 21:27:20 10° N 21:30:41 49° NNE 21:30:41 49° NNE
NOSS 3-2 (C) 4.4 21:35:51 30° NE 21:35:51 30° NE 21:39:05 10° NE
ERS-1 Rocket 4.0 21:36:08 34° NE 21:36:08 34° NE 21:39:40 10° N
USA 245 4.4 21:42:10 67° S 21:43:07 85° WSW 21:49:36 10° NNW
Meteor 2-20 Rocket 4.3 21:38:17 10° N 21:44:28 76° E 21:44:35 76° E
SL-16 R/B 4.4 21:42:27 10° NNE 21:44:17 12° NE 21:44:17 12° NE
Cosmos 1954 Rocket 4.4 21:46:57 48° WSW 21:48:08 60° WNW 21:53:25 10° N
Cosmos 2082 Rocket 3.3 21:42:50 10° SW 21:48:15 43° WNW 21:53:39 10° N
Cosmos 2369 3.6 21:44:30 10° NNW 21:50:01 83° NNW 21:50:01 83° NNW
Spot 2 Rocket 3.7 21:51:37 69° WNW 21:51:37 69° WNW 21:56:18 10° NNW
Cosmos 1818 3.7 21:48:08 10° NNW 21:53:03 70° WNW 21:53:03 70° WNW
Terra 3.5 22:00:01 25° NNE 22:00:01 25° NNE 22:02:21 10° N
Cosmos 2278 4.0 21:53:49 10° NNW 21:58:39 60° NNE 21:58:39 60° NNE
Cosmos 2123 Rocket 4.2 21:56:06 10° NNW 22:02:13 63° W 22:02:49 60° WSW
Cosmos 1605 Rocket 4.2 22:05:45 61° WSW 22:06:17 63° W 22:12:21 10° N
USA 234 3.7 22:06:06 48° NE 22:06:34 49° NE 22:12:49 10° NNW
Cosmos 2322 Rocket 4.3 22:03:55 10° NNE 22:06:13 15° NE 22:06:13 15° NE
Cosmos 1980 Rocket 3.1 22:24:52 10° NNW 22:28:51 46° NW 22:28:51 46° NW
ATLAS 5 CENTAUR R/B 4.2 22:34:15 10° WNW 22:38:50 23° WSW 22:38:50 23° WSW
CENTAUR R/B 3.4 22:51:50 41° NW 22:51:50 41° NW 22:57:52 10° NNE
Lacrosse 5 4.4 23:23:21 10° NNW 23:24:41 17° NNW 23:24:41 17° NNW
SL-16 R/B 4.1 23:23:50 10° NNW 23:26:08 25° NNW 23:26:08 25° NNW
Cosmos 2322 Rocket 4.4 23:46:10 10° NNW 23:48:01 21° NNW 23:48:01 21° NNW
